Weather History for Omak, WA

Change the Weather History Date:

Tuesday, November 12, 2013

  Actual Average Record
Temperature  
Mean Temperature 38 °F 37 °F  
Max Temperature 45 °F 46 °F 60 °F (2008)
Min Temperature 31 °F 29 °F 3 °F (1955)
Degree Days  
Heating Degree Days 27 28  
Month to date heating degree days 325 305  
Since 1 July heating degree days 985 965  
Cooling Degree Days 0 0  
Month to date cooling degree days 0 0  
Year to date cooling degree days 814 665  
Moisture  
Dew Point 38 °F    
Average Humidity 86    
Maximum Humidity 96    
Minimum Humidity 76    
Precipitation  
Precipitation T in 0.06 in 0.50 in (1973)
Month to date precipitation 0.99 0.74  
Year to date precipitation 9.89 11.44  
Sea Level Pressure  
Sea Level Pressure 30.32 in    
Wind  
Wind Speed 4 mph (SSW)    
Max Wind Speed 10 mph    
Max Gust Speed 18 mph    
Visibility 9 miles    
Events Rain    
T = Trace of Precipitation, MM = Missing Value Source: NWS Daily Summary

Daily Weather History Graph

Daily Weather History Graph

Search for Another Location

Airport:

Trip Planner

Search our weather history database for the weather conditions in past years. The results will help you decide how hot, cold, wet, or windy it might be!

Date:

Astronomy

Nov. 12, 2013 Rise Set
Actual Time 7:01 AM PST 4:22 PM PST
Civil Twilight 6:27 AM PST 4:56 PM PST
Nautical Twilight 5:49 AM PST 5:33 PM PST
Astronomical Twilight 5:13 AM PST 6:10 PM PST
Moon 1:59 PM PST (11/12) 1:33 AM PST (11/12)
Length of Visible Light 10h 28m
Length of Day
9h 20m
Waxing Gibbous, 77% of the Moon is Illuminated
Nov 12
Waxing Gibbous
Nov 17
Full
Nov 25
Last Quarter
Dec 2
New
Dec 9
First Quarter

Hourly Weather History & Observations

Time (PST) Temp. Windchill Dew Point Humidity Pressure Visibility Wind Dir Wind Speed Gust Speed Precip Events Conditions
12:53 AM 34.0 °F - 32.0 °F 92% 30.29 in 7.0 mi Calm Calm - N/A   Clear
1:53 AM 33.1 °F - 30.9 °F 92% 30.29 in 7.0 mi Calm Calm - N/A   Clear
2:53 AM 32.0 °F - 30.0 °F 92% 30.29 in 5.0 mi Calm Calm - N/A   Clear
3:53 AM 34.0 °F - 32.0 °F 92% 30.28 in 8.0 mi Calm Calm - N/A   Overcast
4:53 AM 34.0 °F - 32.0 °F 92% 30.28 in 9.0 mi Calm Calm - N/A   Overcast
5:53 AM 35.1 °F - 34.0 °F 96% 30.28 in 9.0 mi Calm Calm - N/A   Overcast
6:53 AM 36.0 °F 33.3 °F 34.0 °F 93% 30.30 in 8.0 mi WSW 3.5 mph - N/A   Overcast
7:53 AM 37.0 °F - 36.0 °F 96% 30.28 in 5.0 mi Calm Calm - 0.00 in Rain Light Rain
8:53 AM 39.0 °F 35.7 °F 37.0 °F 93% 30.30 in 7.0 mi SSE 4.6 mph - 0.00 in   Overcast
9:24 AM 39.2 °F - 37.4 °F 93% 30.27 in 7.0 mi Calm Calm - 0.00 in   Overcast
9:53 AM 42.1 °F 37.1 °F 39.0 °F 89% 30.32 in 10.0 mi South 8.1 mph - 0.00 in   Overcast
10:39 AM 42.8 °F 37.5 °F 39.2 °F 87% 30.29 in 10.0 mi South 9.2 mph - N/A   Overcast
10:53 AM 43.0 °F 38.8 °F 39.0 °F 86% 30.32 in 10.0 mi South 6.9 mph - N/A   Overcast
11:53 AM 44.1 °F 40.8 °F 39.0 °F 82% 30.33 in 10.0 mi SSW 5.8 mph - N/A   Overcast
12:53 PM 45.0 °F 41.8 °F 37.9 °F 76% 30.33 in 10.0 mi SSW 5.8 mph - N/A   Overcast
1:53 PM 44.1 °F 39.5 °F 39.0 °F 82% 30.33 in 10.0 mi SSW 8.1 mph - N/A   Overcast
2:05 PM 44.6 °F 41.4 °F 39.2 °F 81% 30.30 in 10.0 mi SSW 5.8 mph - N/A   Overcast
2:53 PM 44.1 °F 39.5 °F 39.9 °F 85% 30.33 in 8.0 mi SSW 8.1 mph - N/A   Overcast
3:53 PM 43.0 °F 38.8 °F 41.0 °F 93% 30.34 in 6.0 mi SW 6.9 mph - N/A   Overcast
4:02 PM 42.8 °F 38.6 °F 41.0 °F 93% 30.30 in 5.0 mi SW 6.9 mph - N/A   Overcast
4:14 PM 42.8 °F 38.6 °F 41.0 °F 93% 30.30 in 6.0 mi SW 6.9 mph - N/A   Overcast
4:53 PM 43.0 °F 39.5 °F 41.0 °F 93% 30.34 in 10.0 mi SSW 5.8 mph - N/A   Overcast
5:53 PM 44.1 °F 41.5 °F 41.0 °F 89% 30.35 in 10.0 mi SW 4.6 mph - N/A   Overcast
6:53 PM 43.0 °F 41.3 °F 41.0 °F 93% 30.36 in 8.0 mi SSW 3.5 mph - N/A   Overcast
7:51 PM 42.8 °F 41.1 °F 39.2 °F 87% 30.33 in 10.0 mi South 3.5 mph - N/A   Overcast
7:53 PM 43.0 °F 41.3 °F 39.9 °F 89% 30.37 in 10.0 mi South 3.5 mph - N/A   Overcast
8:53 PM 43.0 °F 41.3 °F 39.9 °F 89% 30.37 in 10.0 mi South 3.5 mph - N/A   Overcast
9:10 PM 42.8 °F 41.1 °F 39.2 °F 87% 30.34 in 9.0 mi SSE 3.5 mph - N/A   Overcast
9:53 PM 43.0 °F 40.3 °F 41.0 °F 93% 30.37 in 10.0 mi South 4.6 mph - N/A   Overcast
10:15 PM 42.8 °F 40.1 °F 41.0 °F 93% 30.34 in 10.0 mi South 4.6 mph - N/A   Overcast
10:53 PM 43.0 °F 40.3 °F 41.0 °F 93% 30.36 in 10.0 mi South 4.6 mph - N/A   Overcast
11:53 PM 43.0 °F 41.3 °F 41.0 °F 93% 30.37 in 10.0 mi SW 3.5 mph - N/A   Overcast